Location: Chatou
(48.8898°N, 2.1586°E)
Time: 00:49:52
(UTC+00:00)

STRAND 1 - Pass Details

Date: 08 December 2023
Orbit: 766 x 778 km, 98.4° (Epoch: 03 March)

Event Time Altitude Azimuth Distance (km) Brightness Sun altitude
Exits shadow 17:59:16 37° 96° (E) 1,190 ? -19.5°
Maximum altitude 17:59:18 37° 96° (E) 1,190 ? -19.5°
Drops below altitude 10° 18:03:59 10° 164° (SSE) 2,304 ? -20.2°
Sets 18:06:27 0° 172° (S) 3,228 ? -20.6°
